TimeEST,TemperatureF,Dew PointF,Humidity,Sea Level PressureIn,VisibilityMPH,Wind Direction,Wind SpeedMPH,Gust SpeedMPH,PrecipitationIn,Events,Conditions,WindDirDegrees,DateUTC
12:54 AM,43.0,37.9,82,29.64,10.0,Calm,Calm,-,N/A,,Overcast,0,2013-02-28 05:54:00
1:54 AM,39.9,37.0,89,29.64,10.0,Calm,Calm,-,N/A,,Overcast,0,2013-02-28 06:54:00
2:54 AM,39.9,37.9,93,29.63,10.0,Calm,Calm,-,N/A,,Overcast,0,2013-02-28 07:54:00
3:54 AM,42.1,36.0,79,29.61,10.0,West,3.5,-,0.00,,Overcast,280,2013-02-28 08:54:00
4:54 AM,42.1,36.0,79,29.63,10.0,West,4.6,-,0.00,Rain,Light Rain,260,2013-02-28 09:54:00
5:54 AM,42.1,36.0,79,29.63,10.0,WNW,4.6,-,0.00,Rain,Light Rain,300,2013-02-28 10:54:00
6:54 AM,42.1,36.0,79,29.65,8.0,NW,5.8,-,0.00,Rain,Light Rain,310,2013-02-28 11:54:00
7:54 AM,41.0,37.9,89,29.66,4.0,West,3.5,-,0.02,Rain,Light Rain,280,2013-02-28 12:54:00
8:19 AM,41.0,37.4,87,29.66,4.0,West,5.8,-,0.01,Rain,Light Rain,280,2013-02-28 13:19:00
8:54 AM,41.0,37.0,86,29.67,6.0,West,8.1,-,0.03,Rain,Light Rain,270,2013-02-28 13:54:00
9:50 AM,42.8,37.4,81,29.66,10.0,WNW,8.1,-,0.01,Rain,Light Rain,300,2013-02-28 14:50:00
9:54 AM,42.1,37.0,82,29.65,10.0,NW,6.9,-,0.01,Rain,Light Rain,310,2013-02-28 14:54:00
10:54 AM,43.0,34.0,71,29.64,10.0,NW,8.1,-,0.00,,Overcast,310,2013-02-28 15:54:00
11:54 AM,44.1,33.1,65,29.62,10.0,WNW,6.9,-,N/A,,Overcast,300,2013-02-28 16:54:00
12:54 PM,45.0,32.0,60,29.61,10.0,West,9.2,-,N/A,,Overcast,260,2013-02-28 17:54:00
1:54 PM,46.0,32.0,58,29.60,10.0,WNW,8.1,-,N/A,,Overcast,300,2013-02-28 18:54:00
2:54 PM,46.0,28.0,50,29.60,10.0,West,11.5,-,N/A,,Overcast,280,2013-02-28 19:54:00
3:54 PM,44.1,26.1,49,29.60,10.0,WNW,15.0,19.6,N/A,,Overcast,290,2013-02-28 20:54:00
4:54 PM,44.1,27.0,51,29.61,10.0,West,6.9,-,N/A,,Overcast,280,2013-02-28 21:54:00
5:54 PM,44.1,26.1,49,29.63,10.0,WNW,13.8,-,N/A,,Overcast,290,2013-02-28 22:54:00
8:54 PM,39.9,30.0,68,29.68,10.0,WNW,4.6,-,N/A,,Overcast,290,2013-03-01 01:54:00
9:54 PM,39.0,32.0,76,29.69,10.0,WNW,6.9,-,0.00,Rain,Light Rain,300,2013-03-01 02:54:00
10:54 PM,37.0,30.9,79,29.68,10.0,WNW,4.6,-,0.00,,Scattered Clouds,290,2013-03-01 03:54:00
11:54 PM,33.1,28.0,82,29.67,10.0,WNW,4.6,-,N/A,,Clear,290,2013-03-01 04:54:00